"Pseudo-MPEC" for X69896

Created 2020 Sep 23 12:07:30 UT using Find_Orb

Click here for an explanation of pseudo-MPECs

 
 Astrometry: 
     X69896   C2020 09 02IaMXuFpB/7irAstrometryPavL0D5rgbL*CyTgbXNredacted;ijD29
     X69896   C2020 09 02#5`yarclickj*jAkAmU?\M`DyDgxyU:1])!;heres;;r3for`W]QD29
     X69896   C2020 09 02R*`rf32d2W,e0;%uRcvm67.bexplanationnu$T-b`_FF1g4x+FUD29

Station data:
(D29) Purple Mountain Observatory, XuYi Station  (N32.734366 E118.463900)
   China.  Observers H. B. Zhao, B. Li, G. Zhaori, R. Q. Hong, L. F. Hu.
   Measurers H. B. Zhao, B. Li. H. Lu, G. Zhaori. 1.04-m f/1.8 Schmidt + CCD.

Orbital elements:  X69896
   Perihelion 2020 Jun 27.666847 +/- 67.8 TT = 16:00:15 (JD 2459028.166847)
Epoch 2020 Sep  3.0 TT = JDT 2459095.5   Earth MOID: 0.3190   Ma: 0.0059
M  26.02638560 +/- 60               (J2000 ecliptic)          AutoNEOCP
n   0.38653151 +/- 0.455            Peri.  127.43744 +/- 110
a   1.86643460 +/- 1.46             Node   175.24983 +/- 6
e   0.3412033 +/- 0.281             Incl.   26.83544 +/- 35
P   2.55/931.34d           H 19.6   G  0.15   U 12.2  SR
q 1.22960089 +/- 0.56    Q 2.50326832 +/- 23.4
From 3 observations 2020 Sept. 2 (29.1 min); mean residual 0".13
Residuals in arcseconds: 
200902 D29  .13+  .04+    200902 D29  .26-  .07-    200902 D29  .13+  .04+    

Ephemerides (geocentric):
Date (UTC) HH   RA              Dec         delta   r     elong  mag " sig PA
---- -- -- --  -------------   -----------  ------ ------ -----  --- ---- ---
2020 09 23 12  01 44 15.021   -08 29 46.66  .47743 1.4455 153.1 19.7  80d   5
2020 09 23 13  01 44 13.801   -08 32 00.00  .47756 1.4456 153.2 19.7  80d   5
2020 09 23 14  01 44 12.578   -08 34 13.26  .47769 1.4458 153.2 19.7  80d   5
2020 09 23 15  01 44 11.352   -08 36 26.41  .47782 1.4460 153.2 19.7  80d   5
2020 09 23 16  01 44 10.121   -08 38 39.48  .47796 1.4461 153.2 19.7  80d   5
2020 09 23 17  01 44 08.887   -08 40 52.44  .47809 1.4463 153.3 19.7  80d   4
2020 09 23 18  01 44 07.649   -08 43 05.31  .47822 1.4465 153.3 19.7  80d   4
2020 09 23 19  01 44 06.407   -08 45 18.09  .47836 1.4467 153.3 19.7  80d   4
2020 09 23 20  01 44 05.162   -08 47 30.77  .47849 1.4468 153.3 19.7  80d   4
2020 09 23 21  01 44 03.913   -08 49 43.35  .47863 1.4470 153.4 19.7  80d   4
2020 09 23 22  01 44 02.660   -08 51 55.83  .47876 1.4472 153.4 19.7  80d   4
2020 09 23 23  01 44 01.404   -08 54 08.22  .47890 1.4474 153.4 19.7  80d   4
2020 09 24 00  01 44 00.144   -08 56 20.51  .47903 1.4475 153.4 19.7  80d   4
2020 09 24 01  01 43 58.881   -08 58 32.70  .47917 1.4477 153.4 19.7  80d   4
2020 09 24 02  01 43 57.613   -09 00 44.80  .47931 1.4479 153.5 19.7  80d   4
2020 09 24 03  01 43 56.342   -09 02 56.79  .47944 1.4481 153.5 19.7  80d   4
2020 09 24 04  01 43 55.068   -09 05 08.69  .47958 1.4482 153.5 19.7  80d   4
2020 09 24 05  01 43 53.790   -09 07 20.49  .47972 1.4484 153.5 19.7  80d   4
2020 09 24 06  01 43 52.508   -09 09 32.19  .47986 1.4486 153.5 19.7  80d   4
2020 09 24 07  01 43 51.223   -09 11 43.78  .48000 1.4488 153.6 19.7  80d   4
2020 09 24 08  01 43 49.934   -09 13 55.28  .48014 1.4489 153.6 19.7  80d   4
2020 09 24 09  01 43 48.642   -09 16 06.68  .48028 1.4491 153.6 19.7  80d   4
2020 09 24 10  01 43 47.346   -09 18 17.98  .48042 1.4493 153.6 19.7  80d   4
2020 09 24 11  01 43 46.046   -09 20 29.18  .48056 1.4495 153.6 19.7  80d   4
2020 09 24 12  01 43 44.743   -09 22 40.28  .48070 1.4496 153.7 19.7  80d   4
2020 09 24 13  01 43 43.436   -09 24 51.27  .48084 1.4498 153.7 19.7  80d   4
2020 09 24 14  01 43 42.126   -09 27 02.17  .48098 1.4500 153.7 19.7  80d   3
2020 09 24 15  01 43 40.813   -09 29 12.96  .48112 1.4501 153.7 19.7  80d   3
2020 09 24 16  01 43 39.495   -09 31 23.65  .48127 1.4503 153.7 19.7  80d   3
2020 09 24 17  01 43 38.175   -09 33 34.23  .48141 1.4505 153.8 19.7  80d   3
2020 09 24 18  01 43 36.851   -09 35 44.72  .48155 1.4507 153.8 19.7  80d   3
2020 09 24 19  01 43 35.523   -09 37 55.10  .48170 1.4508 153.8 19.7  80d   3
2020 09 24 20  01 43 34.192   -09 40 05.38  .48184 1.4510 153.8 19.7  80d   3
2020 09 24 21  01 43 32.857   -09 42 15.56  .48199 1.4512 153.8 19.7  80d   3
2020 09 24 22  01 43 31.519   -09 44 25.63  .48213 1.4514 153.9 19.7  80d   3
2020 09 24 23  01 43 30.178   -09 46 35.59  .48228 1.4515 153.9 19.7  80d   3
2020 09 25 00  01 43 28.833   -09 48 45.46  .48242 1.4517 153.9 19.7  80d   3
2020 09 25 01  01 43 27.485   -09 50 55.22  .48257 1.4519 153.9 19.7  80d   3
2020 09 25 02  01 43 26.133   -09 53 04.87  .48272 1.4521 153.9 19.7  80d   3
2020 09 25 03  01 43 24.778   -09 55 14.42  .48286 1.4522 154.0 19.7  80d   3
2020 09 25 04  01 43 23.420   -09 57 23.86  .48301 1.4524 154.0 19.7  80d   3
2020 09 25 05  01 43 22.058   -09 59 33.20  .48316 1.4526 154.0 19.7  80d   3
2020 09 25 06  01 43 20.693   -10 01 42.43  .48331 1.4528 154.0 19.7  80d   3
2020 09 25 07  01 43 19.324   -10 03 51.56  .48346 1.4529 154.0 19.7  80d   3
2020 09 25 08  01 43 17.952   -10 06 00.58  .48361 1.4531 154.0 19.7  80d   3
2020 09 25 09  01 43 16.577   -10 08 09.49  .48376 1.4533 154.1 19.7  80d   3
2020 09 25 10  01 43 15.198   -10 10 18.29  .48391 1.4535 154.1 19.7  80d   3
2020 09 25 11  01 43 13.816   -10 12 26.99  .48406 1.4536 154.1 19.7  80d   3